FW3304 Weather Reports


Display with metric or nautical units.
time (UTC)temp
F
wind
direction
speed
MPH
gust
MPH
rain 1hr
in
rain 24hr
in
rain mn
in
humidity
%
barometer
mb
20260903204539 95 121 3.0 8.0 0.00 0.00 0.00 59 1013.0
20260903203038 96 154 3.0 6.0 0.00 0.00 0.00 61 1013.1
20260903203015 96 157 3.0 9.0 0.00 0.00 0.00 60 1016.1
20260903201536 95 186 2.0 8.0 0.00 0.00 0.00 60 1013.3
20260903200035 96 158 3.0 11.0 0.00 0.00 0.00 59 1016.3
20260903200033 96 147 2.0 6.0 0.00 0.00 0.00 59 1013.5
20260903194544 95 157 3.0 7.0 0.00 0.00 0.00 57 1013.7
20260903193030 96 170 6.0 10.0 0.00 0.00 0.00 59 1013.7
20260903193015 96 161 3.0 11.0 0.00 0.00 0.00 59 1016.6
20260903191527 95 179 1.0 7.0 0.00 0.00 0.00 57 1013.9
20260903190035 95 147 4.0 10.0 0.00 0.00 0.00 56 1016.8
20260903190025 95 129 3.0 9.0 0.00 0.00 0.00 56 1014.1
20260903184524 95 160 5.0 9.0 0.00 0.00 0.00 58 1014.2
20260903183023 95 203 3.0 6.0 0.00 0.00 0.00 60 1014.2
20260903183017 95 173 3.0 14.0 0.00 0.00 0.00 60 1016.9
20260903181520 95 184 1.0 6.0 0.00 0.00 0.00 60 1014.4
20260903180021 94 138 2.0 7.0 0.00 0.00 0.00 62 1014.6
20260903180017 94 157 4.0 14.0 0.00 0.00 0.00 62 1017.4
20260903174516 94 125 4.0 6.0 0.00 0.00 0.00 63 1014.7
20260903173023 94 140 4.0 9.0 0.00 0.00 0.00 62 1014.8
20260903173021 94 156 3.0 10.0 0.00 0.00 0.00 62 1017.8
20260903171512 94 155 3.0 7.0 0.00 0.00 0.00 63 1015.0
20260903170037 93 168 2.0 8.0 0.00 0.00 0.00 64 1018.0
20260903170009 93 151 2.0 5.0 0.00 0.00 0.00 64 1015.1
20260903164506 93 122 2.0 6.0 0.00 0.00 0.00 66 1015.2
20260903163016 92 151 2.0 8.0 0.00 0.00 0.00 69 1018.2
20260903163005 92 142 3.0 7.0 0.00 0.00 0.00 69 1015.4
20260903161558 92 179 2.0 5.0 0.00 0.00 0.00 70 1015.4
20260903160058 91 163 2.0 5.0 0.00 0.00 0.00 71 1015.5
20260903160017 91 172 2.0 6.0 0.00 0.00 0.00 71 1018.3
20260903154552 90 165 2.0 5.0 0.00 0.00 0.00 73 1015.5
20260903153049 90 231 0.0 6.0 0.00 0.00 0.00 73 1015.5
20260903153017 90 200 1.0 6.0 0.00 0.00 0.00 73 1018.3
20260903151547 89 186 1.0 4.0 0.00 0.00 0.00 75 1015.7
20260903150052 87 184 1.0 5.0 0.00 0.00 0.00 78 1015.7
20260903150016 87 193 1.0 5.0 0.00 0.00 0.00 77 1018.5
20260903144542 86 195 2.0 4.0 0.00 0.00 0.00 79 1015.8
20260903143042 85 191 0.0 3.0 0.00 0.00 0.00 79 1015.7
20260903143036 85 180 1.0 4.0 0.00 0.00 0.00 79 1018.4
20260903141535 85 176 0.0 4.0 0.00 0.00 0.00 82 1015.7
20260903140027 84 150 0.0 3.0 0.00 0.00 0.00 85 1015.8
20260903140021 84 150 0.0 4.0 0.00 0.00 0.00 85 1018.5
20260903134537 82 150 0.0 3.0 0.00 0.00 0.00 86 1015.8
20260903133036 81 145 0.0 4.0 0.00 0.00 0.00 88 1018.4
20260903133020 81 146 2.0 4.0 0.00 0.00 0.00 88 1015.8
20260903131516 80 143 0.0 2.0 0.00 0.00 0.00 93 1016.0
20260903130017 78 0.0 0.0 0.00 0.00 0.00 96 1018.7
20260903130012 78 143 0.0 0.0 0.00 0.00 0.00 96 1016.1
20260903124506 76 143 0.0 0.0 0.00 0.00 0.00 99 1016.0
20260903123016 75 0.0 0.0 0.00 0.00 0.00 100 1018.6
20260903123005 75 143 0.0 0.0 0.00 0.00 0.00 100 1016.0
20260903121502 74 136 0.0 0.0 0.00 0.00 0.00 99 1015.8
20260903120101 73 136 0.0 0.0 0.00 0.00 0.00 98 1015.7
20260903120016 73 0.0 0.0 0.00 0.00 0.00 98 1018.4
20260903114558 73 136 0.0 0.0 0.00 0.00 0.00 98 1015.7
20260903113056 72 136 0.0 0.0 0.00 0.00 0.00 98 1015.5
20260903113016 72 0.0 0.0 0.00 0.00 0.00 98 1018.0
20260903111553 73 136 0.0 0.0 0.00 0.00 0.00 98 1015.5
20260903110057 73 136 0.0 0.0 0.00 0.00 0.00 98 1015.3
20260903110016 73 0.0 0.0 0.00 0.00 0.00 98 1017.9
20260903104558 73 136 0.0 0.0 0.00 0.00 0.00 98 1015.1
20260903103049 73 136 0.0 0.0 0.00 0.00 0.00 98 1015.0
20260903103020 73 0.0 0.0 0.00 0.00 0.00 98 1017.7
20260903101536 73 136 0.0 0.0 0.00 0.00 0.00 98 1015.0
20260903100035 73 136 0.0 0.0 0.00 0.00 0.00 98 1015.0
20260903100016 73 0.0 0.0 0.00 0.00 0.00 98 1017.7
20260903094539 73 136 0.0 0.0 0.00 0.00 0.00 97 1014.9
20260903093048 73 136 0.0 0.0 0.00 0.00 0.00 98 1014.9
20260903093016 73 0.0 0.0 0.00 0.00 0.00 98 1017.6
20260903091531 73 136 0.0 0.0 0.00 0.00 0.00 97 1014.9
20260903090035 73 136 0.0 0.0 0.00 0.00 0.00 97 1014.9
20260903090016 73 0.0 0.0 0.00 0.00 0.00 97 1017.5
20260903084529 73 136 0.0 0.0 0.00 0.00 0.00 97 1014.9
20260903083029 74 136 0.0 0.0 0.00 0.00 0.00 97 1014.8
20260903083016 74 0.0 0.0 0.00 0.00 0.00 97 1017.4
20260903081539 73 136 0.0 0.0 0.00 0.00 0.00 97 1014.7
20260903080027 74 136 0.0 0.0 0.00 0.00 0.00 97 1014.7
20260903080016 74 0.0 0.0 0.00 0.00 0.00 97 1017.2
20260903074527 74 136 0.0 0.0 0.00 0.00 0.00 97 1014.6
20260903073030 74 136 0.0 0.0 0.00 0.00 0.00 96 1014.6
20260903073016 74 0.0 0.0 0.00 0.00 0.00 96 1017.2
20260903071524 74 136 0.0 0.0 0.00 0.00 0.00 97 1014.7
20260903070053 74 136 0.0 0.0 0.00 0.00 0.00 96 1014.6
20260903070040 74 0.0 1.0 0.00 0.00 0.00 96 1017.2
20260903064521 74 136 0.0 0.0 0.00 0.00 0.00 96 1014.6
20260903063020 74 136 0.0 0.0 0.00 0.00 0.00 96 1014.7
20260903063016 74 138 0.0 1.0 0.00 0.00 0.00 96 1017.2
20260903061520 75 136 0.0 1.0 0.00 0.00 0.00 96 1014.7
20260903060018 75 136 0.0 0.0 0.00 0.00 0.00 96 1014.7
20260903060016 75 0.0 0.0 0.00 0.00 0.00 96 1017.4
20260903054515 75 136 0.0 0.0 0.00 0.00 0.00 96 1014.9
20260903053016 75 0.0 0.0 0.00 0.00 0.00 95 1017.5
20260903053013 75 136 0.0 0.0 0.00 0.00 0.00 95 1015.0
20260903051513 75 136 0.0 0.0 0.00 0.00 0.00 95 1014.9
20260903050015 75 0.0 0.0 0.00 0.00 0.00 95 1017.5
20260903050010 75 136 0.0 0.0 0.00 0.00 0.00 95 1014.9
20260903044509 75 136 0.0 0.0 0.00 0.00 0.00 95 1014.7
20260903043015 76 0.0 0.0 0.00 0.00 0.00 94 1017.5
20260903043010 76 136 0.0 0.0 0.00 0.00 0.00 94 1014.8
20260903041510 76 136 0.0 0.0 0.00 0.00 0.00 94 1014.9
20260903040015 76 0.0 0.0 0.00 0.00 0.00 94 1017.5
20260903040009 76 136 0.0 0.0 0.00 0.00 0.00 94 1014.8
20260903034507 77 136 0.0 0.0 0.00 0.00 0.00 93 1014.8
20260903033020 77 0.0 0.0 0.00 0.00 0.00 93 1017.7
20260903033007 77 136 0.0 0.0 0.00 0.00 0.00 93 1015.0
20260903031522 77 136 0.0 0.0 0.00 0.00 0.00 93 1014.9
20260903030035 77 0.0 2.0 0.00 0.00 0.00 92 1017.7
20260903030005 77 136 0.0 0.0 0.00 0.00 0.00 92 1015.0
20260903024505 78 136 0.0 0.0 0.00 0.00 0.00 91 1015.0
20260903023015 78 137 0.0 2.0 0.00 0.00 0.00 91 1017.4
20260903023005 78 136 0.0 0.0 0.00 0.00 0.00 91 1014.9
20260903021515 79 136 0.0 0.0 0.00 0.00 0.00 90 1014.8
20260903020108 0 0.0 0.0 0.00 0.00 0.00 1014.7
20260903020015 79 0.0 0.0 0.00 0.00 0.00 89 1017.1
20260903014504 80 136 0.0 0.0 0.00 0.00 0.00 89 1014.5
20260903013015 81 0.0 0.0 0.00 0.00 0.00 87 1016.9
20260903013011 81 136 0.0 0.0 0.00 0.00 0.00 87 1014.4
20260903011504 81 136 0.0 0.0 0.00 0.00 0.00 86 1014.3
20260903010015 83 0.0 0.0 0.00 0.00 0.00 84 1016.9
20260903010003 83 136 0.0 0.0 0.00 0.00 0.00 84 1014.2
20260903004502 84 136 0.0 0.0 0.00 0.00 0.00 83 1014.2
20260903003100 85 136 0.0 0.0 0.00 0.00 0.00 81 1014.3
20260903003015 85 0.0 1.0 0.00 0.00 0.00 80 1016.8
20260903001601 87 136 0.0 0.0 0.00 0.00 0.00 78 1014.3
20260903000059 89 136 0.0 0.0 0.00 0.00 0.00 75 1014.3
20260903000020 89 145 0.0 5.0 0.00 0.00 0.00 74 1017.1
20260902234604 90 136 0.0 0.0 0.00 0.00 0.00 69 1014.5
20260902233058 91 142 0.0 3.0 0.00 0.00 0.00 69 1014.5
20260902233015 91 142 1.0 8.0 0.00 0.00 0.00 69 1017.1
20260902231603 91 141 1.0 4.0 0.00 0.00 0.00 67 1014.5
20260902230104 92 139 2.0 5.0 0.00 0.00 0.00 68 1014.6
20260902230015 92 138 2.0 8.0 0.00 0.00 0.00 67 1017.2
20260902224556 92 136 3.0 7.0 0.00 0.00 0.00 65 1014.6
20260902223055 93 124 2.0 5.0 0.00 0.00 0.00 65 1014.6
20260902223015 93 141 2.0 9.0 0.00 0.00 0.00 64 1017.2
20260902221557 93 140 3.0 6.0 0.00 0.00 0.00 64 1014.6
20260902220053 93 148 4.0 7.0 0.00 0.00 0.00 62 1014.7
20260902220015 93 148 3.0 10.0 0.00 0.00 0.00 60 1017.3
20260902214552 93 161 5.0 8.0 0.00 0.00 0.00 61 1014.7
20260902213055 93 158 3.0 7.0 0.00 0.00 0.00 59 1014.9
20260902213035 93 151 3.0 10.0 0.00 0.00 0.00 60 1017.5
20260902211550 94 153 3.0 8.0 0.00 0.00 0.00 59 1015.0
20260902210049 94 179 2.0 6.0 0.00 0.00 0.00 59 1015.0
20260902210017 94 140 3.0 10.0 0.00 0.00 0.00 60 1017.6